Tracking 17333 objects as of 25-November-2015
HD Live streaming from Space Station
objects crossing your sky now


NFIRE is no longer on orbit
NFIRE is classified as:

NORAD ID: 31140
Int'l Code: 2007-014A
Perigee: N/A
Apogee: N/A
Inclination: N/A
Period: N/A
Semi major axis: N/A
Launch date: April 24, 2007
Source: United States (US)
Decay date: 2015-11-04

NFIRE is a data-gathering research satellite for the U.S. missile defense program.
Your satellite tracking list
Your tracking list is empty

NASA's NSSDC Master Catalog

Two Line Element Set (TLE):
1 31140U 07014A   15308.35526193  .14088985  12207-4  15928-3 0  9999
2 31140  48.3944  35.0697 0003965 277.8252 164.0202 16.50014489484019

Source of the keplerian elements: AFSPC

N2YO: 279